Location: Bannatyne
(13.0833°N, 59.5333°W)
Time: 11:24:06
(UTC+00:00)

Explorer 7 - Pass Details

Date: 30 January 2020
Orbit: 485 x 679 km, 50.3° (Epoch: 25 February)

Event Time Altitude Azimuth Distance (km) Brightness Sun altitude
Rises 21:02:23 0° 186° (S) 2,837 10.9 11.9°
Reaches altitude 10° 21:05:31 10° 164° (SSE) 1,890 9.7 11.2°
Maximum altitude 21:08:06 16° 127° (SE) 1,526 8.8 10.6°
Drops below altitude 10° 21:10:36 10° 89° (E) 1,817 8.9 10.1°
Sets 21:13:30 0° 67° (ENE) 2,667 9.6 9.4°
